DW3383 Weather Reports


time (UTC)temp
C
wind
direction
speed
KPH
gust
KPH
rain 1hr
cm
rain 24hr
cm
rain mn
cm
humidity
%
barometer
mb
20260901130805 6 262 8.0 11.3 0.00 0.00 0.00 98 1003.1
20260901120305 6 142 1.6 11.3 0.00 0.00 0.00 98 1002.7
20260901110805 6 280 6.4 9.7 0.00 0.00 0.00 96 1002.2
20260901110305 6 277 6.4 12.9 0.00 0.00 0.00 97 1002.2
20260901100804 7 272 4.8 8.0 0.00 0.00 0.00 95 1001.9
20260901100305 7 270 4.8 9.7 0.00 0.00 0.00 95 1001.9
20260901090805 7 273 4.8 4.8 0.00 0.00 0.00 93 1001.5
20260901090305 7 272 3.2 8.0 0.00 0.00 0.00 93 1001.4
20260901080805 7 250 3.2 4.8 0.00 0.00 0.00 91 1001.1
20260901080304 7 349 3.2 4.8 0.00 0.00 0.00 91 1001.1
20260901070812 8 232 0.0 3.2 0.00 0.00 0.00 87 1000.5
20260901060805 8 36 3.2 4.8 0.00 0.00 0.00 83 999.9
20260901060305 8 14 4.8 9.7 0.00 0.00 0.00 81 999.9
20260901050804 9 314 4.8 9.7 0.00 0.00 0.00 82 999.3
20260901050304 9 291 4.8 9.7 0.00 0.00 0.00 83 999.2
20260901040804 10 167 4.8 8.0 0.00 0.00 0.00 79 998.7
20260901040304 10 323 3.2 8.0 0.00 0.00 0.00 79 998.7
20260901030804 11 46 1.6 4.8 0.00 0.00 0.00 74 998.3
20260901030305 11 75 1.6 8.0 0.00 0.00 0.00 73 998.2
20260901020804 12 78 1.6 3.2 0.00 0.00 0.00 74 997.9
20260901010804 12 36 1.6 3.2 0.00 0.00 0.00 76 998.2
20260901010305 12 67 0.0 4.8 0.00 0.00 0.00 76 998.2
20260901000804 12 8 0.0 3.2 0.00 0.00 0.00 73 998.5
20260901000305 12 90 1.6 4.8 0.00 0.00 0.00 74 998.5
20260831230804 12 89 1.6 4.8 0.00 0.00 0.00 76 998.9
20260831230305 12 4 0.0 4.8 0.00 0.00 0.00 75 999.0
20260831220804 12 110 0.0 3.2 0.00 0.00 0.00 76 999.3
20260831220304 12 3 1.6 9.7 0.00 0.00 0.00 74 999.3
20260831210805 11 37 1.6 3.2 0.00 0.00 0.00 78 999.8
20260831210304 11 59 0.0 8.0 0.00 0.00 0.00 77 999.8
20260831200804 11 57 1.6 3.2 0.00 0.00 0.00 79 1000.3
20260831200305 11 32 1.6 9.7 0.00 0.00 0.00 79 1000.3
20260831190805 10 346 3.2 8.0 0.00 0.00 0.00 83 1001.0
20260831180305 7 268 4.8 9.7 0.00 0.00 0.00 91 1001.7
20260831170804 6 358 3.2 4.8 0.00 0.00 0.00 95 1002.2
20260831170304 6 333 3.2 9.7 0.00 0.00 0.00 95 1002.3
20260831160805 6 325 4.8 8.0 0.00 0.00 0.00 96 1002.6
20260831160304 6 281 8.0 9.7 0.00 0.00 0.00 97 1002.7
20260831150804 3 279 4.8 8.0 0.00 0.00 0.00 99 1003.4
20260831150304 3 296 4.8 8.0 0.00 0.00 0.00 99 1003.5
20260831140804 3 286 3.2 8.0 0.00 0.03 0.00 98 1004.0
20260831140305 3 277 4.8 11.3 0.00 0.03 0.00 98 1004.1